Flag for Switzerland Weather past 2 weeks in Reinach, Basel-Land, Switzerland

Now
46 °F

Overcast.


Feels Like: 40 °F
Forecast: 37 / 52 °F
Wind: 15 mph from West

Location: Bale-Mulhouse

Current Time: Oct 23, 2014 at 1:27:18 AM

Latest Report: Oct 23, 2014 at 12:00 AM


Visibility: 19 mi

Pressure: 30.28 "Hg

Humidity: 80%

Dew point: 41 °F

Location of ReinachLocation

Historic Weather in Reinach — Graph

°F

Reinach temperature yesterday

Maximum temperature yesterday: 49 °F (at 3:00 PM)
Minimum temperature yesterday: 42 °F (at 4:00 AM)
Average temperature yesterday: 46 °F

Past Weeks' High & Low Weather Summary

 TemperatureHumidityPressure
High76 °F (Oct 19, 4:00 PM)99% (Oct 12, 7:00 AM)30.28 "Hg (Oct 12, 7:00 AM)
Low42 °F (Oct 22, 4:00 AM)50% (Oct 19, 4:00 PM)29.74 "Hg (Oct 15, 5:00 PM)
Average59 °F86%29.96 "Hg
* Reported Midnight between Oct 7 and Oct 8 — Midnight between Oct 22 and Oct 23, Reinach, Weather by CustomWeather, © 2014

Note: Actual official high and low records may vary slightly from our data, if they occured in-between our weather recording intervals... More about our weather records

Advertising

Reinach weather history for previous 24 hours

 ConditionsComfort  
Time TempWeatherWind HumidityBarometerVisibility
12:00 AM
Oct 23
46 °FOvercast.15 mph80%30.28 "Hg19 mi
11:00 PM
Oct 22
46 °FOvercast.13 mph78%30.28 "Hg19 mi
10:00 PM46 °FOvercast.14 mph77%30.26 "Hg19 mi
9:00 PM46 °FOvercast.13 mph78%30.25 "Hg19 mi
8:00 PM46 °FPassing clouds.13 mph78%30.25 "Hg19 mi
7:00 PM47 °FOvercast.7 mph72%30.24 "Hg16 mi
6:00 PM48 °FOvercast.7 mph72%30.22 "Hg16 mi
5:00 PM48 °FOvercast.12 mph69%30.21 "Hg9 mi
4:00 PM48 °FOvercast.14 mph71%30.23 "Hg16 mi
3:00 PM49 °FOvercast.12 mph66%30.23 "Hg14 mi
2:00 PM47 °FOvercast.13 mph68%30.24 "Hg14 mi
1:00 PM46 °FOvercast.13 mph73%30.25 "Hg12 mi
12:00 PM48 °FOvercast.12 mph78%30.23 "Hg12 mi
11:00 AM44 °FSprinkles. Overcast.9 mph89%30.24 "Hg4 mi
10:00 AM43 °FSprinkles. Low clouds.10 mph88%30.23 "Hg5 mi
9:00 AM44 °FOvercast.8 mph86%30.20 "Hg7 mi
8:00 AM42 °FOvercast.13 mph86%30.18 "Hg10 mi
7:00 AM42 °FPassing clouds.8 mph90%30.16 "Hg4 mi
6:00 AM43 °FPassing clouds.10 mph86%30.14 "Hg25 mi
5:00 AM43 °FOvercast.15 mph86%30.12 "Hg12 mi
4:00 AM42 °FOvercast.8 mph89%30.13 "Hg34 mi
3:00 AM47 °FOvercast.10 mph83%30.12 "Hg34 mi
2:00 AM47 °FOvercast.10 mph84%30.11 "Hg31 mi
1:00 AM49 °FOvercast.13 mph80%30.10 "Hg34 mi
Weather by CustomWeather, © 2014

See weather overviewHow to use our weather pages